[[{"header":{"parameterUnit":"m.s-1","parameterCategory":1,"la1":30.2991,"la2":30.254,"lo1":-89.0895,"lo2":-89.0444,"dy":0.0017,"dx":0.0017,"nx":28,"ny":28,"refTime":"2025-09-03T21:00:00:Z","depth":0,"parameterNumber":2,"parameterNumberName":"U-component_of_WINDS"},"data":[0,0,0,0,0,0,0,0,0,0,0,0,0,0,0,0,0,0,0,0,0,0,0,0,0,0,0,0,0,0,0,0,0,0,0,0,0,0,0,0,0,0,0,0,0,0,0,0,0,0,0,0,0,0,0,0,0,0,-0.5218,-0.5218,0,-0.5171,-0.517,-0.517,-0.5122,-0.5121,-0.5121,-0.512,-0.5071,-0.507,-0.5069,0,0,0,0,0,0,0,0,0,0,0,0,0,-0.5268,-0.5268,-0.5218,-0.5218,-0.5217,-0.5171,-0.517,-0.517,-0.5122,-0.5121,-0.512,-0.512,-0.5071,-0.507,-0.5069,0,0,0,0,0,0,0,0,0,0,0,0,0,-0.5236,-0.5267,-0.5218,-0.5188,-0.5184,-0.5171,-0.517,-0.5169,-0.5122,-0.5121,-0.512,-0.5119,-0.5071,-0.507,-0.5069,-0.5082,0,0,-0.5066,-0.5065,0,0,0,0,0,0,0,0,-0.5238,-0.5234,-0.5193,-0.519,-0.5186,-0.5151,-0.517,-0.514,-0.5122,-0.5146,-0.512,-0.5119,-0.5098,-0.5095,-0.5088,-0.5079,-0.5077,-0.5066,-0.5065,-0.5065,-0.5064,0,0,0,0,0,0,0,-0.524,-0.5236,-0.5199,-0.5192,-0.5188,-0.5177,-0.5171,-0.5164,-0.5128,-0.5144,-0.514,-0.5135,-0.5096,-0.5089,-0.5087,-0.5076,-0.5066,-0.5065,-0.5064,-0.5064,-0.5078,-0.5079,0,0,0,0,0,0,-0.5247,-0.5238,-0.5201,-0.5198,-0.521,-0.5177,-0.517,-0.5163,-0.5128,-0.5122,-0.5136,-0.5133,-0.5091,-0.5088,-0.5085,-0.5098,-0.5065,-0.5064,-0.5063,-0.5077,-0.5079,-0.508,0,0,0,0,0,0,-0.5249,-0.5244,-0.5203,-0.5217,-0.5211,-0.5177,-0.5169,-0.5163,-0.5156,-0.5122,-0.5115,-0.5135,-0.5091,-0.5086,-0.5083,-0.5096,-0.5063,-0.5062,-0.5076,-0.5078,-0.5079,-0.5125,0,0,0,0,0,0,-0.525,-0.5245,-0.5249,-0.5218,-0.521,-0.5202,-0.517,-0.5163,-0.5154,-0.515,-0.512,-0.5114,-0.5089,-0.5085,-0.5082,-0.5094,-0.5061,-0.5075,-0.5077,-0.5079,-0.5123,-0.5128,-0.5133,0,0,0,0,0,-0.5252,-0.5263,-0.5249,-0.5245,-0.5215,-0.5203,-0.5199,-0.5171,-0.5155,-0.516,-0.5138,-0.5115,-0.5095,-0.5085,-0.5082,-0.5093,-0.5074,-0.5076,-0.5078,-0.512,-0.5127,-0.5133,0,0,0,0,0,0,-0.5296,-0.5258,-0.5243,-0.5244,-0.5227,-0.5195,-0.5199,-0.5179,-0.5165,-0.5162,-0.5127,-0.5121,-0.5123,-0.5107,-0.5097,-0.5105,-0.5081,-0.5083,-0.5114,-0.5121,-0.5126,-0.513,-0.506,0,0,0,0,0,-0.5306,-0.53,-0.5267,-0.5271,-0.5264,-0.5233,-0.5227,-0.5207,-0.5188,-0.518,-0.5159,-0.5141,-0.5131,-0.5125,-0.5114,-0.512,-0.5114,-0.5127,-0.5132,-0.5137,-0.5139,-0.5143,-0.5149,-0.5087,-0.5087,-0.5087,0,0,-0.5326,-0.5305,-0.5303,-0.528,-0.5264,-0.5259,-0.5227,-0.5222,-0.5218,-0.5179,-0.5176,-0.516,-0.5138,-0.5141,-0.5141,-0.5128,-0.5154,-0.514,-0.5144,-0.5143,-0.5146,-0.5152,-0.5157,-0.5089,-0.5089,-0.5088,0,0,-0.536,-0.5343,-0.5346,-0.5332,-0.5309,-0.5289,-0.529,-0.5261,-0.5249,-0.5245,-0.5217,-0.5212,-0.5195,-0.5181,-0.5172,-0.5205,-0.5183,-0.5202,-0.523,-0.5234,-0.5239,-0.5243,-0.5256,-0.5261,-0.5204,-0.5204,-0.5204,0,-0.5388,-0.5379,-0.535,-0.5347,-0.5339,-0.5305,-0.5308,-0.5295,-0.527,-0.5265,-0.5252,-0.5232,-0.5214,-0.5214,-0.5223,-0.5216,-0.5217,-0.5205,-0.5241,-0.5245,-0.5248,-0.526,-0.5265,-0.5206,-0.5206,-0.5206,-0.5206,0,-0.5415,-0.5409,-0.5414,-0.5392,-0.5384,-0.5384,-0.5356,-0.5351,-0.5333,-0.5315,-0.5313,-0.5291,-0.5276,-0.5275,-0.5256,-0.5273,-0.5266,-0.5247,-0.5223,-0.5257,-0.5268,-0.5272,-0.521,-0.5209,-0.5208,-0.5208,0,0,-0.5473,-0.5437,-0.5439,-0.543,-0.5404,-0.5399,-0.5399,-0.5385,-0.5382,-0.5367,-0.5366,-0.5354,-0.5338,-0.5327,-0.5307,-0.5312,-0.5341,-0.5292,-0.5291,-0.5303,-0.5359,-0.5374,-0.5379,-0.5327,-0.5327,-0.5328,-0.5362,0,-0.5503,-0.55,-0.5476,-0.548,-0.5475,-0.5445,-0.5445,-0.5429,-0.5413,-0.5407,-0.5388,-0.5381,-0.5359,-0.5353,-0.5356,-0.5336,-0.5351,-0.5334,-0.5326,-0.5326,-0.5333,-0.5385,-0.5399,-0.5432,-0.5365,-0.5366,-0.5366,0,-0.5537,-0.5526,-0.553,-0.5506,-0.5503,-0.5504,-0.549,-0.5485,-0.5467,-0.5455,-0.5445,-0.5423,-0.5422,-0.54,-0.5399,-0.5388,-0.5383,-0.5374,-0.5375,-0.5373,-0.5348,-0.5385,-0.5442,-0.5447,-0.5372,-0.5372,-0.5372,0,-0.5581,-0.5566,-0.5568,-0.556,-0.5532,-0.5534,-0.5522,-0.5504,-0.5498,-0.5486,-0.5482,-0.5471,-0.5464,-0.5456,-0.5432,-0.5418,-0.5434,-0.541,-0.5425,-0.5426,-0.5429,-0.5429,-0.5487,-0.5426,-0.5426,-0.5426,-0.5426,0,-0.5618,-0.5622,-0.5587,-0.5588,-0.5592,-0.5565,-0.557,-0.5555,-0.554,-0.5538,-0.551,-0.5509,-0.5478,-0.5473,-0.5455,-0.5458,-0.5455,-0.5445,-0.544,-0.5448,-0.5449,-0.5445,-0.5442,-0.5427,-0.5427,-0.5427,-0.5427,0,-0.5667,-0.5644,-0.5643,-0.5618,-0.5611,-0.5616,-0.5594,-0.5594,-0.5577,-0.5575,-0.5573,-0.5547,-0.554,-0.5516,-0.5503,-0.5491,-0.55,-0.549,-0.5506,-0.5503,-0.552,-0.5519,-0.5577,-0.5583,-0.5518,-0.5519,-0.5519,0,-0.5691,-0.5694,-0.567,-0.5667,-0.5657,-0.5652,-0.5646,-0.562,-0.5615,-0.5597,-0.56,-0.5592,-0.5584,-0.5575,-0.5555,-0.5546,-0.5536,-0.5557,-0.5534,-0.5542,-0.5537,-0.5538,-0.5538,-0.5561,-0.5562,-0.5563,-0.5564,0,-0.5738,-0.5727,-0.572,-0.571,-0.5705,-0.5695,-0.5684,-0.5683,-0.5654,-0.565,-0.5644,-0.5638,-0.5626,-0.5619,-0.5607,-0.5595,-0.5575,-0.5571,-0.5574,-0.5582,-0.5592,-0.5588,-0.552,-0.557,-0.5569,-0.5569,-0.5568,-0.5568,-0.5776,-0.5778,-0.5762,-0.5756,-0.5745,-0.5736,-0.5735,-0.5719,-0.5714,-0.5702,-0.5687,-0.5684,-0.5668,-0.565,-0.5641,-0.5638,-0.5626,-0.5631,-0.5632,-0.5633,-0.5638,-0.5592,-0.5636,-0.5635,-0.5635,-0.5635,-0.5635,0,-0.5823,-0.5811,-0.5806,-0.5792,-0.5788,-0.577,-0.5757,-0.5755,-0.5752,-0.574,-0.5733,-0.5727,-0.5721,-0.5701,-0.5692,-0.5694,-0.5685,-0.5693,-0.5693,-0.5691,-0.5648,-0.5646,-0.5701,-0.5701,-0.5701,-0.5701,-0.5701,-0.5701,-0.5846,-0.5849,-0.5837,-0.5835,-0.5823,-0.582,-0.5814,-0.5806,-0.5797,-0.5791,-0.5786,-0.5773,-0.5759,-0.5749,-0.5743,-0.5738,-0.5736,-0.5748,-0.5739,-0.57,-0.5693,-0.5687,-0.5686,-0.5747,-0.5747,-0.5782,-0.5782,-0.5783]},{"header":{"parameterUnit":"m.s-1","parameterCategory":1,"la1":30.2991,"la2":30.254,"lo1":-89.0895,"lo2":-89.0444,"dy":0.0017,"dx":0.0017,"nx":28,"ny":28,"refTime":"2025-09-03T21:00:00:Z","depth":0,"parameterNumber":3,"parameterNumberName":"V-component_of_WINDS"},"data":[0,0,0,0,0,0,0,0,0,0,0,0,0,0,0,0,0,0,0,0,0,0,0,0,0,0,0,0,0,0,0,0,0,0,0,0,0,0,0,0,0,0,0,0,0,0,0,0,0,0,0,0,0,0,0,0,0,0,3.322,3.322,0,3.3195,3.3194,3.3194,3.3241,3.3243,3.3244,3.3246,3.3213,3.3211,3.3208,0,0,0,0,0,0,0,0,0,0,0,0,0,3.3302,3.3301,3.322,3.322,3.3219,3.3195,3.3194,3.3194,3.3241,3.3243,3.3245,3.3247,3.3214,3.3211,3.3208,0,0,0,0,0,0,0,0,0,0,0,0,0,3.327,3.33,3.322,3.324,3.3242,3.3195,3.3194,3.3194,3.324,3.3243,3.3245,3.3247,3.3215,3.3211,3.3208,3.3138,0,0,3.3197,3.3195,0,0,0,0,0,0,0,0,3.3272,3.3267,3.3237,3.3238,3.324,3.3224,3.3211,3.3175,3.324,3.3241,3.3246,3.3249,3.3214,3.3211,3.3201,3.3137,3.3135,3.3197,3.3194,3.3193,3.3192,0,0,0,0,0,0,0,3.3274,3.3269,3.321,3.3237,3.3238,3.3248,3.3246,3.3205,3.3214,3.3241,3.3244,3.3241,3.3215,3.3204,3.32,3.3135,3.3197,3.3194,3.3191,3.319,3.301,3.3008,0,0,0,0,0,0,3.3275,3.327,3.3211,3.3209,3.3263,3.3245,3.3242,3.3226,3.3215,3.3215,3.3239,3.3243,3.3209,3.3204,3.3199,3.3115,3.3193,3.319,3.3188,3.3013,3.301,3.3007,0,0,0,0,0,0,3.3277,3.3269,3.3212,3.3241,3.3234,3.3241,3.3222,3.3225,3.3213,3.3213,3.3215,3.3226,3.321,3.3204,3.3153,3.3114,3.3188,3.3185,3.3016,3.3012,3.3008,3.2947,0,0,0,0,0,0,3.3279,3.327,3.3245,3.324,3.3232,3.3168,3.322,3.3222,3.3208,3.3213,3.3201,3.3202,3.3212,3.3158,3.3149,3.3111,3.3182,3.3019,3.3014,3.3009,3.2952,3.2941,3.2932,0,0,0,0,0,3.3282,3.3228,3.3243,3.3236,3.3202,3.3165,3.3161,3.3175,3.3205,3.3178,3.3178,3.3202,3.3121,3.3152,3.3143,3.3103,3.3022,3.3016,3.301,3.2957,3.2943,3.2932,0,0,0,0,0,0,3.3225,3.3227,3.3245,3.3188,3.3176,3.3173,3.3141,3.3161,3.3139,3.3145,3.3162,3.3159,3.3103,3.3099,3.3134,3.3034,3.3076,3.3068,3.3039,3.3026,3.3016,3.3017,3.3179,0,0,0,0,0,3.3207,3.318,3.3182,3.3131,3.3125,3.3134,3.3119,3.3131,3.3119,3.3113,3.311,3.3095,3.3066,3.3046,3.302,3.2953,3.2949,3.2921,3.2911,3.2902,3.2894,3.2855,3.2842,3.2987,3.2987,3.2987,0,0,3.3167,3.3165,3.3146,3.312,3.3112,3.3081,3.3129,3.3094,3.307,3.3107,3.3059,3.3056,3.304,3.298,3.2954,3.2974,3.2853,3.2895,3.2888,3.2884,3.2848,3.2834,3.2822,3.2983,3.2984,3.2984,0,0,3.3079,3.3076,3.3032,3.3024,3.3013,3.3019,3.3009,3.3003,3.3003,3.2955,3.2982,3.2953,3.2903,3.289,3.2877,3.2784,3.2804,3.2775,3.272,3.2683,3.2671,3.2661,3.2625,3.2612,3.2768,3.2767,3.2767,0,3.303,3.2986,3.3007,3.297,3.2956,3.2991,3.2945,3.2936,3.2916,3.2904,3.2929,3.2867,3.2859,3.2795,3.2773,3.2762,3.2748,3.2775,3.2672,3.2662,3.2652,3.2618,3.2604,3.2764,3.2764,3.2765,3.2765,0,3.2925,3.2894,3.286,3.2841,3.2824,3.2783,3.2795,3.2775,3.279,3.2793,3.2742,3.2735,3.2706,3.2693,3.2706,3.263,3.2643,3.267,3.2711,3.2635,3.2602,3.2589,3.2759,3.276,3.2761,3.2762,0,0,3.2798,3.2792,3.2779,3.277,3.2761,3.2736,3.2696,3.267,3.2651,3.2637,3.2601,3.2559,3.2583,3.2568,3.258,3.2547,3.247,3.2577,3.2577,3.2555,3.2383,3.2361,3.2345,3.2485,3.2483,3.2481,3.2383,0,3.2707,3.264,3.2657,3.2589,3.2559,3.2592,3.2557,3.2546,3.2548,3.2521,3.2522,3.2491,3.2527,3.2518,3.2487,3.2486,3.2435,3.2494,3.2448,3.2446,3.2448,3.2329,3.2306,3.2214,3.2371,3.2369,3.2368,0,3.2593,3.2575,3.2504,3.2498,3.2486,3.2454,3.2432,3.2407,3.2394,3.2398,3.2381,3.24,3.2357,3.2402,3.2342,3.2381,3.2364,3.236,3.2357,3.235,3.24,3.2316,3.2185,3.217,3.2348,3.235,3.2351,0,3.2503,3.2462,3.2413,3.2405,3.2398,3.2375,3.237,3.2361,3.2344,3.2323,3.2312,3.2286,3.2271,3.225,3.2259,3.2292,3.2196,3.2243,3.2195,3.2194,3.217,3.2171,3.2031,3.2165,3.2165,3.2165,3.2166,0,3.2398,3.2352,3.2373,3.2342,3.2292,3.2312,3.226,3.226,3.2251,3.2219,3.2247,3.2216,3.2232,3.2202,3.221,3.2157,3.2151,3.215,3.2151,3.2145,3.2145,3.2131,3.2137,3.2162,3.2162,3.2163,3.2164,0,3.2288,3.23,3.2249,3.2248,3.2246,3.2208,3.2206,3.2176,3.2182,3.2141,3.2132,3.2139,3.2105,3.2113,3.2076,3.2081,3.2013,3.2025,3.2017,3.2019,3.1969,3.1973,3.1814,3.1793,3.1943,3.1941,3.194,0,3.2219,3.2185,3.218,3.2162,3.2156,3.2126,3.2109,3.2128,3.2109,3.2092,3.2063,3.2033,3.2008,3.1952,3.1951,3.1922,3.1931,3.1877,3.1926,3.192,3.1926,3.1926,3.1921,3.1866,3.1864,3.1863,3.1862,0,3.2093,3.2101,3.2077,3.2055,3.2034,3.2017,3.2002,3.1985,3.2002,3.1979,3.1946,3.1927,3.189,3.1857,3.183,3.1823,3.1843,3.1847,3.1834,3.1825,3.1821,3.1819,3.1987,3.185,3.1851,3.1852,3.1852,3.1853,3.1999,3.197,3.1961,3.1933,3.1924,3.191,3.1882,3.1884,3.1857,3.1829,3.1841,3.1802,3.1788,3.1755,3.1745,3.1712,3.1732,3.1714,3.1708,3.1703,3.1695,3.183,3.1708,3.1708,3.1709,3.1709,3.1709,0,3.1872,3.1869,3.1843,3.1822,3.1799,3.1825,3.1809,3.1788,3.1753,3.1741,3.1717,3.1677,3.1645,3.1643,3.1613,3.1587,3.1596,3.1578,3.1578,3.1576,3.1681,3.1694,3.1572,3.1572,3.1572,3.1572,3.1572,3.1572,3.1803,3.1754,3.1761,3.1706,3.1703,3.1666,3.1655,3.164,3.163,3.1585,3.156,3.156,3.155,3.152,3.1491,3.1491,3.1477,3.1455,3.1458,3.1555,3.1569,3.1582,3.1594,3.1453,3.1453,3.1355,3.1355,3.1354]}]]